FALCON 9 DEB (47848 NORAD) Tracking and Keplerian Element Data

This shows tracking and keplerian element data for the satellite.

Feedback or suggestion? Click here.




ElementValue
Catalog47848
NameFALCON 9 DEB
Epoch Orbit463
Epoch Day96.87052855
Epoch Year2021
RAAN50.1612
Inclination53.0398
Eccentricity0.0005925
Argument of Perigee260.2612
Mean Anonmoly99.777
Mean Motion16.49325413
Decay Rate0.12060755
L11 47848U 21018BP 21096.87052855 .12060755 12604-4 15019-3 0 9993
L22 47848 53.0398 50.1612 0005925 260.2612 99.7770 16.49325413 4636



Live tracking and technical data element details for FALCON 9 DEB (NORAD 47848). FALCON 9 DEB can be tracked NOW for your location showing map with azimuth and elevation plus other details from your city location.







IsCatalogInMostPopularTable: catalog: 47848, numindb: 101
Update: records affected: 1



GetName: 47848 FALCON 9 DEB

Hit Count: updated at: Sun, 04 Jun 2023 23:49:59 GMT